EW8377 Weather Reports


Display with metric or nautical units.
time (UTC)temp
F
wind
direction
speed
MPH
gust
MPH
rain 1hr
in
rain 24hr
in
rain mn
in
humidity
%
barometer
mb
20260902091524 74 67 0.0 0.0 0.00 0.00 0.00 43 1005.4
20260902090022 75 67 0.0 0.0 0.00 0.00 0.00 43 1005.4
20260902084526 74 67 0.0 0.0 0.00 0.00 0.00 43 1005.5
20260902083027 74 110 0.0 0.0 0.00 0.00 0.00 43 1005.6
20260902081517 76 110 0.0 0.0 0.00 0.00 0.00 42 1005.6
20260902080016 76 52 0.0 0.0 0.00 0.00 0.00 42 1005.6
20260902074514 77 91 0.0 0.0 0.00 0.00 0.00 41 1005.7
20260902073013 78 82 2.0 4.0 0.00 0.00 0.00 41 1005.7
20260902071512 77 95 0.0 1.0 0.00 0.00 0.00 41 1005.8
20260902070010 78 98 0.0 3.0 0.00 0.00 0.00 40 1005.6
20260902064508 78 94 2.0 3.0 0.00 0.00 0.00 40 1005.5
20260902063014 79 240 0.0 0.0 0.00 0.00 0.00 39 1005.5
20260902061506 80 240 0.0 1.0 0.00 0.00 0.00 37 1005.6
20260902060107 80 240 0.0 0.0 0.00 0.00 0.00 37 1005.7
20260902054601 80 240 0.0 0.0 0.00 0.00 0.00 38 1005.6
20260902053105 81 239 0.0 0.0 0.00 0.00 0.00 37 1005.6
20260902051559 82 239 0.0 4.0 0.00 0.00 0.00 36 1005.6
20260902050100 81 195 1.0 4.0 0.00 0.00 0.00 39 1005.7
20260902044601 80 259 0.0 1.0 0.00 0.00 0.00 37 1005.8
20260902043101 81 103 0.0 0.0 0.00 0.00 0.00 36 1005.5
20260902041558 82 103 0.0 0.0 0.00 0.00 0.00 36 1005.2
20260902040058 82 103 0.0 0.0 0.00 0.00 0.00 35 1005.3
20260902034605 84 103 0.0 0.0 0.00 0.00 0.00 33 1005.1
20260902033104 84 222 0.0 0.0 0.00 0.00 0.00 34 1004.8
20260902031555 85 222 0.0 0.0 0.00 0.00 0.00 33 1004.6
20260902030054 86 222 0.0 0.0 0.00 0.00 0.00 33 1004.4
20260902024553 86 222 0.0 1.0 0.00 0.00 0.00 32 1004.1
20260902023054 86 198 0.0 0.0 0.00 0.00 0.00 31 1003.8
20260902021553 87 209 0.0 2.0 0.00 0.00 0.00 30 1003.7
20260902020100 87 199 0.0 1.0 0.00 0.00 0.00 29 1003.4
20260902014552 87 224 0.0 3.0 0.00 0.00 0.00 29 1003.3
20260902013051 88 268 0.0 3.0 0.00 0.00 0.00 28 1003.2
20260902011550 89 231 1.0 3.0 0.00 0.00 0.00 27 1003.1
20260902010048 89 250 1.0 7.0 0.00 0.00 0.00 26 1003.2
20260902004548 90 283 4.0 10.0 0.00 0.00 0.00 26 1003.1
20260902003049 90 236 4.0 7.0 0.00 0.00 0.00 26 1003.1
20260902001555 90 284 5.0 9.0 0.00 0.00 0.00 27 1003.2
20260902000047 90 228 6.0 12.0 0.00 0.00 0.00 27 1003.3
20260901234544 89 289 4.0 12.0 0.00 0.00 0.00 28 1003.3
20260901233056 90 250 8.0 13.0 0.00 0.00 0.00 28 1003.2
20260901231542 90 254 9.0 12.0 0.00 0.00 0.00 28 1003.3
20260901230041 90 264 7.0 13.0 0.00 0.00 0.00 28 1003.1
20260901224538 90 221 9.0 15.0 0.00 0.00 0.00 29 1003.2
20260901223042 90 274 2.0 10.0 0.00 0.00 0.00 28 1003.3
20260901221538 91 269 11.0 15.0 0.00 0.00 0.00 28 1003.3
20260901220134 92 269 4.0 9.0 0.00 0.00 0.00 27 1003.4
20260901214515 90 266 3.0 11.0 0.00 0.00 0.00 28 1003.7
20260901213112 92 214 7.0 13.0 0.00 0.00 0.00 27 1003.9
20260901211551 91 250 7.0 13.0 0.00 0.00 0.00 28 1004.0
20260901210045 90 215 6.0 12.0 0.00 0.00 0.00 29 1004.3
20260901204519 90 271 3.0 20.0 0.00 0.00 0.00 28 1004.3
20260901203103 90 307 6.0 12.0 0.00 0.00 0.00 29 1004.7
20260901201543 92 210 7.0 12.0 0.00 0.00 0.00 27 1004.9
20260901200015 94 74 0.0 7.0 0.00 0.00 0.00 26 1005.0
20260901194602 91 89 2.0 10.0 0.00 0.00 0.00 28 1005.1
20260901193056 91 198 6.0 9.0 0.00 0.00 0.00 28 1005.3
20260901191537 90 60 0.0 6.0 0.00 0.00 0.00 29 1005.5
20260901190023 89 236 9.0 13.0 0.00 0.00 0.00 30 1005.7
20260901184647 89 103 1.0 11.0 0.00 0.00 0.00 29 1005.9
20260901183050 90 217 1.0 5.0 0.00 0.00 0.00 29 1005.9
20260901181644 88 267 5.0 13.0 0.00 0.00 0.00 30 1006.0
20260901180053 89 188 4.0 9.0 0.00 0.00 0.00 29 1006.2
20260901174512 88 269 4.0 7.0 0.00 0.00 0.00 31 1006.4
20260901173109 87 221 0.0 7.0 0.00 0.00 0.00 31 1006.4
20260901171550 86 79 1.0 8.0 0.00 0.00 0.00 33 1006.6
20260901170056 87 156 2.0 8.0 0.00 0.00 0.00 33 1006.6
20260901164606 86 103 0.0 3.0 0.00 0.00 0.00 35 1006.5
20260901163050 86 115 0.0 2.0 0.00 0.00 0.00 34 1006.5
20260901161641 84 230 0.0 2.0 0.00 0.00 0.00 37 1006.4
20260901160054 84 91 0.0 2.0 0.00 0.00 0.00 39 1006.5
20260901154648 82 80 2.0 4.0 0.00 0.00 0.00 41 1006.3
20260901153058 80 100 0.0 1.0 0.00 0.00 0.00 45 1006.4
20260901151640 78 198 0.0 1.0 0.00 0.00 0.00 48 1006.5
20260901150109 76 224 0.0 1.0 0.00 0.00 0.00 52 1006.5
20260901144545 75 219 0.0 2.0 0.00 0.00 0.00 52 1006.5
20260901143032 76 207 1.0 2.0 0.00 0.00 0.00 50 1006.5
20260901141638 75 137 0.0 1.0 0.00 0.00 0.00 52 1006.5
20260901140050 74 75 0.0 0.0 0.00 0.00 0.00 52 1006.3
20260901134542 72 75 0.0 0.0 0.00 0.00 0.00 55 1006.1
20260901133007 72 101 0.0 3.0 0.00 0.00 0.00 55 1006.1
20260901131602 70 60 0.0 3.0 0.00 0.00 0.00 57 1005.9
20260901130044 71 63 0.0 0.0 0.00 0.00 0.00 56 1005.9
20260901124646 70 77 0.0 1.0 0.00 0.00 0.00 57 1005.6
20260901123041 72 97 0.0 0.0 0.00 0.00 0.00 54 1005.4
20260901121646 73 97 0.0 0.0 0.00 0.00 0.00 54 1005.2
20260901120121 72 249 0.0 0.0 0.00 0.00 0.00 55 1005.4
20260901114544 72 264 0.0 3.0 0.00 0.00 0.00 54 1005.2
20260901113034 72 283 1.0 5.0 0.00 0.00 0.00 54 1005.0
20260901111637 72 269 1.0 3.0 0.00 0.00 0.00 53 1005.0
20260901110058 72 62 0.0 2.0 0.00 0.00 0.00 53 1004.7
20260901104653 72 61 0.0 2.0 0.00 0.00 0.00 53 1004.5
20260901103044 74 58 1.0 6.0 0.00 0.00 0.00 51 1004.7
20260901101541 74 68 0.0 2.0 0.00 0.00 0.00 51 1004.8
20260901100146 74 96 1.0 4.0 0.00 0.00 0.00 51 1004.8
20260901094600 74 61 0.0 2.0 0.00 0.00 0.00 50 1005.0
20260901093155 74 72 0.0 4.0 0.00 0.00 0.00 50 1004.8